Date String (YYYY-MM-DD hh:mm:ss) UTC,Instrument flags,absolute air pressure of the measurement (hPa),sample flow rate (lpm),inlet stack bypass flow (lpm),air temperature of the measurement (°C),ambient temperature measured by the external sensor (°C),aerosol sample conditioner tube jacket temperature (°C),OPC LED temperature (°C),internal box temperature (°C),relative humidity of the measurement (%),span deviation,mass concentration of particles derived from Lorenz-Mie calculation of OPC scattering (μg/m³),mass concentration of particles derived from Lorenz-Mie calculation of OPC scattering (μg/m³),mass concentration of particles derived from Lorenz-Mie calculation of OPC scattering (μg/m³)
DateTimeUTC,F1_M11,P_M11,Q1_M11,Q2_M11,T1_M11,T2_M11,T3_M11,T4_M11,T5_M11,U1_M11,ZSPAN_M11,X0_M11,X2_M11,X1_M11
2023-06-18 10:00:00,SystemResetWarning,0827.4,4.99,000.00,030.1,028.4,000.0,038.9,031.4,16.2,0000.0,0007.14,0003.67,0003.38
2023-06-18 10:01:00,SystemResetWarning,0827.3,4.99,000.00,030.1,028.4,000.0,038.9,031.4,16.2,0000.0,0007.39,0003.63,0003.37
2023-06-18 10:02:00,SystemResetWarning,0827.3,5.00,000.00,030.1,028.4,000.0,038.8,031.4,16.3,0000.0,0007.31,0003.61,0003.37
2023-06-18 10:03:00,SystemResetWarning,0827.4,4.99,000.00,030.0,028.4,000.0,038.8,031.4,16.2,0000.0,0007.35,0003.62,0003.38
2023-06-18 10:04:00,SystemResetWarning,0827.3,4.99,000.00,030.0,028.3,000.0,038.8,031.3,16.3,0000.0,0007.37,0003.63,0003.38
2023-06-18 10:05:00,SystemResetWarning,0827.4,5.00,000.00,030.0,028.3,000.0,038.8,031.3,16.3,0000.0,0007.38,0003.63,0003.38
2023-06-18 10:06:00,SystemResetWarning,0827.3,5.01,000.00,030.0,028.3,000.0,038.8,031.3,16.5,0000.0,0007.00,0003.61,0003.37
2023-06-18 10:07:00,SystemResetWarning,0827.3,5.01,000.00,030.0,028.3,000.0,038.8,031.3,16.1,0000.0,0005.86,0003.63,0003.37
2023-06-18 10:08:00,SystemResetWarning,0827.3,5.00,000.00,030.0,028.3,000.0,038.7,031.3,16.0,0000.0,0005.84,0003.66,0003.38
2023-06-18 10:09:00,SystemResetWarning,0827.3,4.99,000.00,030.0,028.3,000.0,038.7,031.4,16.3,0000.0,0006.01,0003.67,0003.38
2023-06-18 10:10:00,SystemResetWarning,0827.3,4.99,000.00,030.0,028.3,000.0,038.7,031.4,16.9,0000.0,0006.16,0003.70,0003.39
2023-06-18 10:11:00,SystemResetWarning,0827.3,5.00,000.00,030.0,028.3,000.0,038.7,031.4,17.0,0000.0,0006.48,0003.72,0003.39
2023-06-18 10:12:00,SystemResetWarning,0827.3,5.01,000.00,030.0,028.3,000.0,038.7,031.4,16.7,0000.0,0006.13,0003.75,0003.41
2023-06-18 10:13:00,SystemResetWarning,0827.3,5.01,000.00,030.1,028.3,000.0,038.7,031.4,16.4,0000.0,0006.84,0003.81,0003.42
2023-06-18 10:14:00,SystemResetWarning,0827.4,5.00,000.00,030.1,028.4,000.0,038.7,031.5,16.3,0000.0,0007.79,0003.84,0003.43
2023-06-18 10:15:00,SystemResetWarning,0827.4,4.99,000.00,030.1,028.4,000.0,038.7,031.5,16.2,0000.0,0007.91,0003.87,0003.44
2023-06-18 10:16:00,SystemResetWarning,0827.4,4.99,000.00,030.1,028.4,000.0,038.7,031.5,16.0,0000.0,0008.67,0003.89,0003.46
2023-06-18 10:17:00,SystemResetWarning,0827.4,5.00,000.00,030.1,028.4,000.0,038.7,031.5,16.0,0000.0,0008.93,0003.91,0003.47
2023-06-18 10:18:00,SystemResetWarning,0827.3,5.00,000.00,030.1,028.4,000.0,038.7,031.6,15.9,0000.0,0009.07,0003.91,0003.48
2023-06-18 10:19:00,SystemResetWarning,0827.4,5.00,000.00,030.1,028.4,000.0,038.7,031.6,16.1,0000.0,0009.40,0003.92,0003.48
2023-06-18 10:20:00,SystemResetWarning,0827.3,5.00,000.00,030.1,028.4,000.0,038.7,031.5,16.6,0000.0,0009.53,0003.92,0003.48
2023-06-18 10:21:00,SystemResetWarning,0827.2,5.00,000.00,030.1,028.4,000.0,038.7,031.5,16.6,0000.0,0010.44,0003.93,0003.48
2023-06-18 10:22:00,SystemResetWarning,0827.2,5.00,000.00,030.1,028.4,000.0,038.7,031.5,16.6,0000.0,0010.57,0003.93,0003.48
2023-06-18 10:23:00,SystemResetWarning,0827.2,5.00,000.00,030.1,028.4,000.0,038.7,031.6,16.6,0000.0,0010.55,0003.93,0003.47
2023-06-18 10:24:00,SystemResetWarning,0827.1,5.00,000.00,030.1,028.4,000.0,038.7,031.6,16.4,0000.0,0010.05,0003.88,0003.46
2023-06-18 10:25:00,SystemResetWarning,0827.1,5.00,000.00,030.1,028.4,000.0,038.7,031.6,16.6,0000.0,0009.45,0003.86,0003.45
2023-06-18 10:26:00,SystemResetWarning,0827.1,5.00,000.00,030.1,028.4,000.0,038.7,031.6,16.7,0000.0,0009.30,0003.82,0003.43
2023-06-18 10:27:00,SystemResetWarning,0827.1,5.00,000.00,030.1,028.4,000.0,038.7,031.6,16.6,0000.0,0008.52,0003.79,0003.42
2023-06-18 10:28:00,SystemResetWarning,0827.1,5.00,000.00,030.1,028.4,000.0,038.7,031.6,16.8,0000.0,0008.35,0003.78,0003.42
2023-06-18 10:29:00,SystemResetWarning,0827.1,5.00,000.00,030.2,028.5,000.0,038.7,031.6,16.9,0000.0,0008.23,0003.78,0003.42
2023-06-18 10:30:00,SystemResetWarning,0827.1,4.99,000.00,030.2,028.5,000.0,038.7,031.6,16.9,0000.0,0007.91,0003.78,0003.42
2023-06-18 10:31:00,SystemResetWarning,0827.2,4.99,000.00,030.2,028.5,000.0,038.7,031.6,16.8,0000.0,0007.83,0003.75,0003.42
2023-06-18 10:32:00,SystemResetWarning,0827.1,5.00,000.00,030.2,028.5,000.0,038.7,031.6,16.7,0000.0,0006.63,0003.74,0003.41
2023-06-18 10:33:00,SystemResetWarning,0827.1,5.00,000.00,030.2,028.5,000.0,038.7,031.6,16.6,0000.0,0006.17,0003.73,0003.41
2023-06-18 10:34:00,SystemResetWarning,0827.2,5.00,000.00,030.2,028.5,000.0,038.8,031.6,16.6,0000.0,0006.69,0003.71,0003.42
2023-06-18 10:35:00,SystemResetWarning,0827.1,5.00,000.00,030.2,028.5,000.0,038.8,031.6,16.3,0000.0,0007.60,0003.74,0003.43
2023-06-18 10:36:00,SystemResetWarning,0827.1,5.00,000.00,030.2,028.5,000.0,038.8,031.6,16.5,0000.0,0007.97,0003.76,0003.43
2023-06-18 10:37:00,SystemResetWarning,0827.1,5.00,000.00,030.2,028.5,000.0,038.8,031.6,16.1,0000.0,0008.09,0003.80,0003.43
2023-06-18 10:38:00,SystemResetWarning,0827.1,5.00,000.00,030.2,028.5,000.0,038.8,031.7,15.9,0000.0,0008.08,0003.80,0003.43
2023-06-18 10:39:00,SystemResetWarning,0827.0,5.00,000.00,030.2,028.5,000.0,038.8,031.7,16.0,0000.0,0008.01,0003.80,0003.43
2023-06-18 10:40:00,SystemResetWarning,0827.1,5.00,000.00,030.2,028.5,000.0,038.8,031.7,15.9,0000.0,0007.98,0003.79,0003.43
2023-06-18 10:41:00,SystemResetWarning,0827.1,5.00,000.00,030.2,028.5,000.0,038.8,031.7,15.8,0000.0,0008.00,0003.79,0003.42
2023-06-18 10:42:00,SystemResetWarning,0827.1,5.00,000.00,030.2,028.5,000.0,038.8,031.7,15.7,0000.0,0008.02,0003.80,0003.43
2023-06-18 10:43:00,SystemResetWarning,0827.0,5.00,000.00,030.2,028.5,000.0,038.8,031.7,15.9,0000.0,0007.95,0003.80,0003.43
2023-06-18 10:44:00,SystemResetWarning,0827.1,5.00,000.00,030.2,028.5,000.0,038.8,031.6,15.9,0000.0,0007.89,0003.79,0003.43
2023-06-18 10:45:00,SystemResetWarning,0827.0,5.00,000.00,030.2,028.5,000.0,038.8,031.6,15.9,0000.0,0007.64,0003.80,0003.42
2023-06-18 10:46:00,SystemResetWarning,0827.1,5.00,000.00,030.2,028.4,000.0,038.8,031.6,15.9,0000.0,0006.76,0003.79,0003.42
2023-06-18 10:47:00,SystemResetWarning,0827.1,5.00,000.00,030.2,028.4,000.0,038.8,031.6,15.9,0000.0,0006.12,0003.77,0003.41
2023-06-18 10:48:00,SystemResetWarning,0827.1,5.00,000.00,030.2,028.4,000.0,038.8,031.5,15.7,0000.0,0006.10,0003.73,0003.41
2023-06-18 10:49:00,SystemResetWarning,0827.1,5.00,000.00,030.2,028.4,000.0,038.8,031.5,15.7,0000.0,0006.34,0003.75,0003.42
2023-06-18 10:50:00,SystemResetWarning,0827.1,5.00,000.00,030.2,028.4,000.0,038.8,031.6,15.8,0000.0,0006.45,0003.78,0003.42
2023-06-18 10:51:00,SystemResetWarning,0827.1,5.00,000.00,030.2,028.4,000.0,038.8,031.6,15.8,0000.0,0006.54,0003.80,0003.44
2023-06-18 10:52:00,SystemResetWarning,0827.1,5.00,000.00,030.2,028.4,000.0,038.8,031.6,15.5,0000.0,0006.43,0003.79,0003.44
2023-06-18 10:53:00,SystemResetWarning,0827.1,5.00,000.00,030.2,028.4,000.0,038.8,031.6,15.5,0000.0,0006.33,0003.79,0003.44
2023-06-18 10:54:00,SystemResetWarning,0827.1,5.00,000.00,030.2,028.4,000.0,038.8,031.5,15.7,0000.0,0006.24,0003.78,0003.44
2023-06-18 10:55:00,SystemResetWarning,0827.0,5.00,000.00,030.2,028.4,000.0,038.8,031.5,15.7,0000.0,0006.58,0003.79,0003.44
2023-06-18 10:56:00,SystemResetWarning,0827.0,5.00,000.00,030.2,028.4,000.0,038.8,031.5,15.6,0000.0,0006.59,0003.80,0003.44
2023-06-18 10:57:00,SystemResetWarning,0827.0,5.00,000.00,030.2,028.4,000.0,038.8,031.5,15.5,0000.0,0006.77,0003.82,0003.44
2023-06-18 10:58:00,SystemResetWarning,0827.0,5.00,000.00,030.2,028.4,000.0,038.8,031.6,15.4,0000.0,0006.92,0003.84,0003.44
2023-06-18 10:59:00,SystemResetWarning,0827.0,5.00,000.00,030.2,028.4,000.0,038.8,031.6,15.2,0000.0,0006.71,0003.85,0003.44
